UAL1650 TNCA-KORD

Flight info

Callsign UAL1650
Flight time N/A
Altitude 31000
Route BEROX1F BEROX DCT HOFER DCT LERED/N0469F320 DCT LETON/M078F320 L451 ILIDO/M078F340 L451 JAINS/N0455F340 DCT FRRAM DCT ANNVA DCT FLO DCT BENBY DCT CUBIM DCT HEVAN Q118 BONNT VEECK5
Aircraft A321/M-SDE3FGHIRWY/LB1

Departure

Time 2026-04-28 19:25
Airport Queen Beatrix International Airport (TNCA)

Arrival

Time N/A
Airport Chicago O'Hare International Airport (KORD)
Time Latitude Longitude Altitude Speed Heading
2026-04-28 19:00 12.50303 -70.00916 49 ft 0 kts 12°
2026-04-28 19:12 12.50295 -70.00918 77 ft 3 kts 12°
2026-04-28 19:12 12.50276 -70.00922 70 ft 3 kts 20°
2026-04-28 19:12 12.50263 -70.00934 46 ft 3 kts 83°
2026-04-28 19:12 12.50263 -70.00944 46 ft 0 kts 104°
2026-04-28 19:19 12.50261 -70.00942 49 ft 1 kts 134°
2026-04-28 19:19 12.50247 -70.00952 47 ft 7 kts 230°
2026-04-28 19:20 12.50239 -70.01039 47 ft 15 kts 284°
2026-04-28 19:20 12.50236 -70.01145 46 ft 16 kts 272°
2026-04-28 19:20 12.50255 -70.01262 43 ft 18 kts 282°
2026-04-28 19:20 12.50286 -70.01394 38 ft 20 kts 284°
2026-04-28 19:21 12.50322 -70.01542 38 ft 23 kts 284°
2026-04-28 19:21 12.50359 -70.01694 35 ft 18 kts 284°
2026-04-28 19:21 12.50379 -70.01775 34 ft 6 kts 284°
2026-04-28 19:21 12.50382 -70.01788 34 ft 0 kts 284°
2026-04-28 19:22 12.50383 -70.01790 33 ft 2 kts 284°
2026-04-28 19:22 12.50386 -70.01803 33 ft 4 kts 284°
2026-04-28 19:22 12.50414 -70.01918 31 ft 22 kts 283°
2026-04-28 19:22 12.50452 -70.02082 28 ft 25 kts 284°
2026-04-28 19:23 12.50496 -70.02259 25 ft 27 kts 284°
2026-04-28 19:23 12.50543 -70.02450 21 ft 29 kts 284°
2026-04-28 19:23 12.50572 -70.02628 20 ft 19 kts 259°
2026-04-28 19:23 12.50542 -70.02710 17 ft 6 kts 243°
2026-04-28 19:24 12.50515 -70.02761 17 ft 9 kts 232°
2026-04-28 19:24 12.50458 -70.02781 17 ft 9 kts 158°
2026-04-28 19:24 12.50422 -70.02707 18 ft 31 kts 106°
2026-04-28 19:24 12.50293 -70.02176 28 ft 123 kts 103°
2026-04-28 19:25 12.50007 -70.01120 353 ft 172 kts 107°
2026-04-28 19:25 12.49634 -69.99854 946 ft 204 kts 102°
2026-04-28 19:25 12.49291 -69.98334 1743 ft 231 kts 102°
2026-04-28 19:25 12.48926 -69.96661 2763 ft 247 kts 102°
2026-04-28 19:26 12.48604 -69.94943 4225 ft 246 kts 96°
2026-04-28 19:26 12.48741 -69.93173 5531 ft 254 kts 76°
2026-04-28 19:26 12.49600 -69.91570 6475 ft 266 kts 51°
2026-04-28 19:26 12.51175 -69.90483 7216 ft 283 kts 24°
2026-04-28 19:27 12.53079 -69.89925 8080 ft 290 kts 17°
2026-04-28 19:27 12.55073 -69.89471 8942 ft 295 kts 17°
2026-04-28 19:27 12.57102 -69.89014 9835 ft 299 kts 17°
2026-04-28 19:27 12.59157 -69.88537 10579 ft 306 kts 16°
2026-04-28 19:28 12.61214 -69.88048 11371 ft 309 kts 15°
2026-04-28 19:28 12.63335 -69.87540 12163 ft 314 kts 16°
2026-04-28 19:28 12.65484 -69.87019 12962 ft 320 kts 16°
2026-04-28 19:28 12.67641 -69.86493 13824 ft 323 kts 16°
2026-04-28 19:29 12.69853 -69.85953 14553 ft 329 kts 15°
2026-04-28 19:29 12.71320 -69.85591 15071 ft 330 kts 15°
2026-04-28 19:29 12.74315 -69.84857 16117 ft 335 kts 15°
2026-04-28 19:29 12.76618 -69.84292 16881 ft 339 kts 14°
2026-04-28 19:30 12.78917 -69.83729 17699 ft 341 kts 14°
2026-04-28 19:30 12.81222 -69.83164 18376 ft 346 kts 14°
2026-04-28 19:30 12.83581 -69.82586 19027 ft 349 kts 13°
2026-04-28 19:30 12.85970 -69.82000 19560 ft 356 kts 13°
2026-04-28 19:31 12.88402 -69.81404 20215 ft 359 kts 13°
2026-04-28 19:31 12.90831 -69.80808 20786 ft 366 kts 13°
2026-04-28 19:31 12.93317 -69.80197 21464 ft 367 kts 12°
2026-04-28 19:31 12.95841 -69.79633 22070 ft 373 kts
2026-04-28 19:32 12.98417 -69.79556 22635 ft 375 kts 355°
2026-04-28 19:32 13.01029 -69.79752 23328 ft 376 kts 352°
2026-04-28 19:32 13.03666 -69.79997 23815 ft 381 kts 352°
2026-04-28 19:32 13.06285 -69.80243 24378 ft 382 kts 352°
2026-04-28 19:33 13.08945 -69.80490 24868 ft 385 kts 352°
2026-04-28 19:33 13.11647 -69.80736 25370 ft 388 kts 353°
2026-04-28 19:33 13.14311 -69.80975 25875 ft 390 kts 352°
2026-04-28 19:33 13.17047 -69.81220 26343 ft 394 kts 352°
2026-04-28 19:34 13.19796 -69.81465 26829 ft 396 kts 352°
2026-04-28 19:34 13.22560 -69.81711 27277 ft 400 kts 352°
2026-04-28 19:34 13.25347 -69.81959 27742 ft 402 kts 352°
2026-04-28 19:34 13.28110 -69.82204 28164 ft 405 kts 352°
2026-04-28 19:35 13.30939 -69.82456 28562 ft 408 kts 352°
2026-04-28 19:35 13.33777 -69.82707 28984 ft 410 kts 352°
2026-04-28 19:35 13.36605 -69.82959 29374 ft 413 kts 352°
2026-04-28 19:35 13.39492 -69.83215 29753 ft 416 kts 352°
2026-04-28 19:36 13.42392 -69.83474 30096 ft 419 kts 352°
2026-04-28 19:36 13.45307 -69.83733 30413 ft 422 kts 352°
2026-04-28 19:36 13.48246 -69.83995 30742 ft 424 kts 352°
2026-04-28 19:36 13.51202 -69.84258 30903 ft 424 kts 352°
2026-04-28 19:37 13.56066 -69.84692 30933 ft 425 kts 352°
2026-04-28 19:37 13.62977 -69.85310 30933 ft 435 kts 352°
2026-04-28 19:38 13.66038 -69.85585 30935 ft 446 kts 352°
2026-04-28 19:38 13.69173 -69.85866 30936 ft 456 kts 352°
2026-04-28 19:38 13.75604 -69.86441 30939 ft 475 kts 352°
2026-04-28 19:39 13.82322 -69.87042 30936 ft 492 kts 352°
2026-04-28 19:39 13.89220 -69.87655 30938 ft 498 kts 352°
2026-04-28 19:40 13.96099 -69.88267 30941 ft 499 kts 352°
2026-04-28 19:40 14.03028 -69.88885 30941 ft 499 kts 352°
2026-04-28 19:41 14.09960 -69.89505 30942 ft 499 kts 352°
2026-04-28 19:41 14.16841 -69.90121 30939 ft 499 kts 352°
2026-04-28 19:42 14.23731 -69.90739 30942 ft 498 kts 352°
2026-04-28 19:42 14.29491 -69.91255 30945 ft 499 kts 352°
2026-04-28 19:43 14.36398 -69.91874 30946 ft 498 kts 352°
2026-04-28 19:43 14.43319 -69.92495 30947 ft 498 kts 351°
2026-04-28 19:44 14.50189 -69.93112 30947 ft 498 kts 351°
2026-04-28 19:44 14.57122 -69.93735 30947 ft 498 kts 351°
2026-04-28 19:45 14.63994 -69.94353 30952 ft 498 kts 351°
2026-04-28 19:45 14.70908 -69.94975 30952 ft 498 kts 351°
2026-04-28 19:46 14.77822 -69.95598 30955 ft 498 kts 351°
2026-04-28 19:46 14.84692 -69.96217 30955 ft 498 kts 351°
2026-04-28 19:47 14.91620 -69.96842 30954 ft 498 kts 351°
2026-04-28 19:47 14.98538 -69.97466 30956 ft 498 kts 351°
2026-04-28 19:48 15.05421 -69.98087 30955 ft 498 kts 351°
2026-04-28 19:48 15.12346 -69.98713 30956 ft 500 kts 351°
2026-04-28 19:49 15.19296 -69.99341 30960 ft 501 kts 351°
2026-04-28 19:49 15.26215 -69.99966 30960 ft 501 kts 351°
2026-04-28 19:50 15.36671 -70.00913 30958 ft 501 kts 351°
2026-04-28 19:51 15.43580 -70.01538 30965 ft 501 kts 351°
2026-04-28 19:51 15.50553 -70.02170 30963 ft 501 kts 351°
2026-04-28 19:52 15.57468 -70.02798 30961 ft 501 kts 351°
2026-04-28 19:52 15.64417 -70.03429 30961 ft 501 kts 351°
2026-04-28 19:53 15.71343 -70.04058 30965 ft 501 kts 351°
2026-04-28 19:53 15.78303 -70.04690 30968 ft 500 kts 351°
2026-04-28 19:54 15.85215 -70.05319 30966 ft 500 kts 351°
2026-04-28 19:54 15.92172 -70.05953 30966 ft 500 kts 351°
2026-04-28 19:55 15.99107 -70.06584 30967 ft 501 kts 351°
2026-04-28 19:55 16.06063 -70.06974 30967 ft 502 kts 354°
2026-04-28 19:56 16.13067 -70.07172 30977 ft 503 kts 354°
2026-04-28 19:56 16.20042 -70.07366 30975 ft 503 kts 354°
2026-04-28 19:57 16.27062 -70.07590 30974 ft 503 kts 353°
2026-04-28 19:57 16.34081 -70.07829 30975 ft 503 kts 353°
2026-04-28 19:58 16.41047 -70.08068 30979 ft 503 kts 353°
2026-04-28 19:58 16.48060 -70.08308 30977 ft 502 kts 353°
2026-04-28 19:59 16.55016 -70.08547 30978 ft 502 kts 353°
2026-04-28 19:59 16.62029 -70.08788 30979 ft 502 kts 353°
2026-04-28 20:00 16.68984 -70.09027 30979 ft 502 kts 353°
2026-04-28 20:00 16.75973 -70.09268 30982 ft 502 kts 353°
2026-04-28 20:01 16.82948 -70.09510 30983 ft 502 kts 353°
2026-04-28 20:01 16.89883 -70.09751 30985 ft 501 kts 353°
2026-04-28 20:02 16.96883 -70.09993 30983 ft 501 kts 353°
2026-04-28 20:02 17.03827 -70.10233 30977 ft 501 kts 353°
2026-04-28 20:03 17.10828 -70.10475 30988 ft 501 kts 353°
2026-04-28 20:03 17.17784 -70.10716 30977 ft 501 kts 353°
2026-04-28 20:04 17.24728 -70.10956 30990 ft 501 kts 353°
2026-04-28 20:04 17.31729 -70.11198 30987 ft 501 kts 353°
2026-04-28 20:05 17.38672 -70.11439 30984 ft 501 kts 353°
2026-04-28 20:05 17.45654 -70.11682 30984 ft 502 kts 353°
2026-04-28 20:06 17.52665 -70.11925 30991 ft 502 kts 353°
2026-04-28 20:06 17.59661 -70.12168 30987 ft 502 kts 353°
2026-04-28 20:07 17.66627 -70.12410 30985 ft 502 kts 353°
2026-04-28 20:07 17.73586 -70.12652 31001 ft 502 kts 353°
2026-04-28 20:08 17.80565 -70.12894 30990 ft 501 kts 353°
2026-04-28 20:08 17.87549 -70.13137 30988 ft 501 kts 353°
2026-04-28 20:09 17.94490 -70.13380 30988 ft 501 kts 353°
2026-04-28 20:09 18.01464 -70.13623 30988 ft 501 kts 353°
2026-04-28 20:10 18.08400 -70.13865 31001 ft 500 kts 352°
2026-04-28 20:10 18.15348 -70.14106 30999 ft 498 kts 352°
2026-04-28 20:11 18.22241 -70.14348 31009 ft 498 kts 352°
2026-04-28 20:11 18.29206 -70.14594 31145 ft 502 kts 352°
2026-04-28 20:11 18.32707 -70.14717 31525 ft 500 kts 352°
2026-04-28 20:12 18.36155 -70.14837 31893 ft 500 kts 352°
2026-04-28 20:12 18.39640 -70.14959 32227 ft 500 kts 352°
2026-04-28 20:12 18.43109 -70.15082 32510 ft 501 kts 352°
2026-04-28 20:12 18.45406 -70.15289 32725 ft 496 kts 346°
2026-04-28 20:13 18.49956 -70.15892 32984 ft 496 kts 346°
2026-04-28 20:13 18.56814 -70.16895 33009 ft 495 kts 346°
2026-04-28 20:14 18.63598 -70.17944 33009 ft 496 kts 345°
2026-04-28 20:14 18.70453 -70.19003 33018 ft 496 kts 346°
2026-04-28 20:15 18.77229 -70.20041 33023 ft 494 kts 345°
2026-04-28 20:15 18.84057 -70.21082 33047 ft 493 kts 345°
2026-04-28 20:16 18.90817 -70.22114 33031 ft 493 kts 345°
2026-04-28 20:16 18.97584 -70.23148 33018 ft 492 kts 345°
2026-04-28 20:17 19.04397 -70.24191 33040 ft 492 kts 345°
2026-04-28 20:17 19.11150 -70.25223 33014 ft 492 kts 345°
2026-04-28 20:18 19.17947 -70.26265 33018 ft 492 kts 345°
2026-04-28 20:18 19.24732 -70.27306 33012 ft 492 kts 345°
2026-04-28 20:19 19.31484 -70.28342 33013 ft 492 kts 345°
2026-04-28 20:19 19.38280 -70.29386 33022 ft 492 kts 345°
2026-04-28 20:20 19.45017 -70.30421 33010 ft 490 kts 345°
2026-04-28 20:20 19.51764 -70.31459 33178 ft 490 kts 345°
2026-04-28 20:20 19.55150 -70.31980 33566 ft 489 kts 345°
2026-04-28 20:21 19.58477 -70.32493 33894 ft 489 kts 345°
2026-04-28 20:21 19.61850 -70.33012 34004 ft 488 kts 345°
2026-04-28 20:21 19.65232 -70.33533 34019 ft 488 kts 345°
2026-04-28 20:22 19.71943 -70.34569 34024 ft 488 kts 345°
2026-04-28 20:22 19.78675 -70.35606 34018 ft 487 kts 345°
2026-04-28 20:23 19.85362 -70.36638 34017 ft 487 kts 345°
2026-04-28 20:23 19.92047 -70.37671 34019 ft 487 kts 345°
2026-04-28 20:24 19.98772 -70.38712 34018 ft 487 kts 345°
2026-04-28 20:24 20.05447 -70.39745 34022 ft 486 kts 345°
2026-04-28 20:25 20.12139 -70.40783 34020 ft 485 kts 345°
2026-04-28 20:25 20.18832 -70.41824 34020 ft 485 kts 345°
2026-04-28 20:26 20.25491 -70.42861 34020 ft 485 kts 345°
2026-04-28 20:26 20.32179 -70.43902 34021 ft 485 kts 345°
2026-04-28 20:27 20.38831 -70.44987 34018 ft 481 kts 341°
2026-04-28 20:27 20.45269 -70.46835 34027 ft 477 kts 336°
2026-04-28 20:28 20.51592 -70.48861 34026 ft 476 kts 336°
2026-04-28 20:28 20.56867 -70.50591 34026 ft 476 kts 336°
2026-04-28 20:29 20.64238 -70.53006 34028 ft 476 kts 336°
2026-04-28 20:29 20.69516 -70.54726 34025 ft 476 kts 335°
2026-04-28 20:30 20.75857 -70.56790 34019 ft 475 kts 335°
2026-04-28 20:30 20.82149 -70.58840 34034 ft 474 kts 335°
2026-04-28 20:31 20.88482 -70.60906 34031 ft 474 kts 335°
2026-04-28 20:31 20.94783 -70.62963 34036 ft 474 kts 335°
2026-04-28 20:32 21.01102 -70.65027 34049 ft 474 kts 335°
2026-04-28 20:32 21.07414 -70.67089 34031 ft 472 kts 335°
2026-04-28 20:33 21.13664 -70.69136 34031 ft 472 kts 335°
2026-04-28 20:33 21.19965 -70.71201 34037 ft 472 kts 335°
2026-04-28 20:34 21.26223 -70.73253 34037 ft 472 kts 335°
2026-04-28 20:34 21.32523 -70.75321 34062 ft 472 kts 335°
2026-04-28 20:35 21.38774 -70.77373 34037 ft 471 kts 335°
2026-04-28 20:35 21.45030 -70.79430 34042 ft 471 kts 335°
2026-04-28 20:36 21.51328 -70.81503 34041 ft 471 kts 335°
2026-04-28 20:36 21.57572 -70.83560 34043 ft 471 kts 335°
2026-04-28 20:37 21.63856 -70.85632 34045 ft 471 kts 335°
2026-04-28 20:37 21.70134 -70.87704 34037 ft 472 kts 335°
2026-04-28 20:38 21.76380 -70.89765 34051 ft 472 kts 335°
2026-04-28 20:38 21.82695 -70.91853 34045 ft 473 kts 335°
2026-04-28 20:39 21.88960 -70.93926 34041 ft 473 kts 335°
2026-04-28 20:39 21.95266 -70.96015 34048 ft 473 kts 335°
2026-04-28 20:40 22.01518 -70.98088 34048 ft 472 kts 335°
2026-04-28 20:40 22.07829 -71.00182 34048 ft 472 kts 335°
2026-04-28 20:41 22.14119 -71.02271 34047 ft 472 kts 335°
2026-04-28 20:41 22.20377 -71.04351 34048 ft 472 kts 335°
2026-04-28 20:42 22.26674 -71.06446 34048 ft 472 kts 335°
2026-04-28 20:42 22.32914 -71.08525 34052 ft 471 kts 335°
2026-04-28 20:43 22.39187 -71.10615 34053 ft 470 kts 335°
2026-04-28 20:43 22.45415 -71.12693 34056 ft 470 kts 335°
2026-04-28 20:44 22.51683 -71.14787 34050 ft 470 kts 335°
2026-04-28 20:44 22.57909 -71.16868 34057 ft 470 kts 335°
2026-04-28 20:45 22.64172 -71.18963 34056 ft 469 kts 335°
2026-04-28 20:45 22.70388 -71.21045 34059 ft 468 kts 335°
2026-04-28 20:46 22.76619 -71.23134 34060 ft 468 kts 335°
2026-04-28 20:46 22.82818 -71.25215 34059 ft 468 kts 335°
2026-04-28 20:47 22.89068 -71.27314 34059 ft 468 kts 335°
2026-04-28 20:47 22.95287 -71.29407 34069 ft 468 kts 336°
2026-04-28 20:48 23.01476 -71.31490 34059 ft 467 kts 336°
2026-04-28 20:48 23.07683 -71.33580 34062 ft 467 kts 336°
2026-04-28 20:49 23.13910 -71.35679 34064 ft 467 kts 336°
2026-04-28 20:49 23.20126 -71.37777 34064 ft 467 kts 336°
2026-04-28 20:50 23.26323 -71.39870 34081 ft 467 kts 336°
2026-04-28 20:50 23.32539 -71.41970 34067 ft 467 kts 337°
2026-04-28 20:51 23.38745 -71.44070 34069 ft 467 kts 337°
2026-04-28 20:51 23.44931 -71.46165 34069 ft 467 kts 337°
2026-04-28 20:52 23.51169 -71.48281 34067 ft 467 kts 337°
2026-04-28 20:52 23.57345 -71.50378 34070 ft 467 kts 336°
2026-04-28 20:53 23.66647 -71.53543 34072 ft 467 kts 336°
2026-04-28 20:53 23.72862 -71.55660 34077 ft 467 kts 337°
2026-04-28 20:54 23.79089 -71.57784 34072 ft 468 kts 337°
2026-04-28 20:54 23.85284 -71.59896 34072 ft 468 kts 337°
2026-04-28 20:55 23.91521 -71.62026 34076 ft 468 kts 338°
2026-04-28 20:55 23.97721 -71.64144 34075 ft 469 kts 338°
2026-04-28 20:56 24.03974 -71.66281 34075 ft 469 kts 338°
2026-04-28 20:56 24.10184 -71.68406 34075 ft 469 kts 338°
2026-04-28 20:57 24.16414 -71.70542 34078 ft 469 kts 338°
2026-04-28 20:57 24.22656 -71.72685 34082 ft 469 kts 339°
2026-04-28 20:58 24.28870 -71.74819 34080 ft 470 kts 339°
2026-04-28 20:58 24.35131 -71.76972 34080 ft 470 kts 339°
2026-04-28 20:59 24.41348 -71.79111 34083 ft 470 kts 339°
2026-04-28 20:59 24.47606 -71.81267 34083 ft 470 kts 339°
2026-04-28 21:00 24.53817 -71.83411 34091 ft 469 kts 340°
2026-04-28 21:00 24.60029 -71.85555 34086 ft 466 kts 340°
2026-04-28 21:01 24.66228 -71.87697 34086 ft 465 kts 340°
2026-04-28 21:01 24.72389 -71.89829 34086 ft 465 kts 340°
2026-04-28 21:02 24.78539 -71.91960 34090 ft 466 kts 340°
2026-04-28 21:02 24.84714 -71.94101 34093 ft 466 kts 341°
2026-04-28 21:03 24.90904 -71.96250 34091 ft 465 kts 341°
2026-04-28 21:03 24.97054 -71.98386 34082 ft 464 kts 341°
2026-04-28 21:04 25.02925 -72.01306 34088 ft 461 kts 330°
2026-04-28 21:04 25.08507 -72.04749 34092 ft 461 kts 328°
2026-04-28 21:05 25.14073 -72.08319 34090 ft 461 kts 328°
2026-04-28 21:05 25.19598 -72.11871 34089 ft 461 kts 329°
2026-04-28 21:06 25.25171 -72.15437 34079 ft 461 kts 329°
2026-04-28 21:06 25.30687 -72.18962 34098 ft 461 kts 329°
2026-04-28 21:07 25.36249 -72.22517 34092 ft 460 kts 329°
2026-04-28 21:07 25.41777 -72.26054 34094 ft 461 kts 329°
2026-04-28 21:08 25.47360 -72.29632 34096 ft 462 kts 329°
2026-04-28 21:08 25.52909 -72.33192 34090 ft 463 kts 329°
2026-04-28 21:09 25.58514 -72.36793 34096 ft 463 kts 329°
2026-04-28 21:09 25.64074 -72.40367 34106 ft 464 kts 329°
2026-04-28 21:10 25.69672 -72.43969 34099 ft 464 kts 329°
2026-04-28 21:10 25.75232 -72.47551 34101 ft 464 kts 329°
2026-04-28 21:11 25.80822 -72.51157 34099 ft 464 kts 329°
2026-04-28 21:11 25.86406 -72.54762 34099 ft 466 kts 329°
2026-04-28 21:12 25.92015 -72.58388 34101 ft 466 kts 329°
2026-04-28 21:12 25.97609 -72.62008 34102 ft 467 kts 329°
2026-04-28 21:13 26.03241 -72.65658 34096 ft 468 kts 329°
2026-04-28 21:13 26.08851 -72.69296 34106 ft 469 kts 329°
2026-04-28 21:14 26.14496 -72.72961 34100 ft 468 kts 329°
2026-04-28 21:14 26.20097 -72.76599 34100 ft 468 kts 328°
2026-04-28 21:15 26.24779 -72.79644 34095 ft 468 kts 329°
2026-04-28 21:15 26.30412 -72.83313 34101 ft 468 kts 329°
2026-04-28 21:16 26.36044 -72.86988 34102 ft 468 kts 328°
2026-04-28 21:16 26.41639 -72.90645 34111 ft 468 kts 328°
2026-04-28 21:17 26.47278 -72.94328 34104 ft 469 kts 328°
2026-04-28 21:17 26.52902 -72.98006 34113 ft 472 kts 329°
2026-04-28 21:18 26.58559 -73.01713 34109 ft 473 kts 329°